SCP
0 0 0 0 0 0 0 0 0 0 0 0 0 0 0 0 0 0 0 0 0 0 0 0 0 0 0 0 0 0 0 0 0 0 0 0 0 0 0 0 0 0 0 0
0 0 0 0 0 0 0 0 0 0 0 0 0 0 0 0 0 0 0 0 0 0 0 0 0 0 0 0 0 0 0 0 0 0 0 0 0 0 0 0 0 0 0 0
0 0 0 0 0 0 0 0 0 0 0 0 0 0 0 0 0 0 0 0 0 0 0 0 0 0 0 0 0 0 0 0 0 0 0 0 0 0 0 0 0 0 0 0
0 0 0 0 0 0 0 0 0 0 0 0 0 0 0 0 0 0 0 0 0 0 0 0 0 0 0 0 0 0 0 0 0 0 0 0 0 0 0 0 0 0 0 0
0 0 0 0 0 0 0 0 0 0 0 0 0 0 0 0 0 0 0 0 0 0 0 0 0 0 0 0 0 0 0 0 0 0 0 0 0 0 0 0 0 0 0 0
0 0 0 0 0 0 0 0 0 0 0 0 0 0 0 0 0 0 0 0 0 0 0 0 0 0 0 0 0 0 0 0 0 0 0 0 0 0 0 0 0 0 0 0
0 0 0 0 0 0 0 0 0 0 0 0 0 0 0 0 0 0 0 0 0 0 0 0 0 0 0 0 0 0 0 0 0 0 0 0 0 0 0 0 0 0 0 0
0 0 0 0 0 0 0 0 0 0 0 0 0 0 0 0 0 0 0 0 0 0 0 0 0 0 0 0 0 0 0 0 0 0 0 0 0 0 0 0 0 0 0 0
0 0 0 0 0 0 0 0 0 0 0 0 0 0 0 0 0 0 0 0 0 0 0 0 0 0 0 0 0 0 0 0 0 0 0 0 0 0 0 0 0 0 0 0
0 0 0 0 0 0 0 0 0 0 0 0 0 0 0 0 0 0 0 0 0 0 0 0 0 0 0 0 0 0 0 0 0 0 0 0 0 0 0 0 0 0 0 0
0 0 0 0 0 0 0 0 0 0 0 0 0 0 0 0 0 0 0 0 0 0 0 0 0 0 0 0 0 0 0 0 0 0 0 0 0 0 0 0 0 0 0 0
0 0 0 0 0 0 0 0 0 0 0 0 0 0 0 0 0 0 0 0 0 0 0 0 0 0 0 0 0 0 0 0 0 0 0 0 0 0 0 0 0 0 0 0
0 0 0 0 0 0 0 0 0 0 0 0 0 0 0 0 0 0 0 0 0 0 0 0 0 0 0 0 0 0 0 0 0 0 0 0 0 0 0 0 0 0 0 0
0 0 0 0 0 0 0 0 0 0 0 0 0 0 0 0 0 0 0 0 0 0 0 0 0 0 0 0 0 0 0 0 0 0 0 0 0 0 0 0 0 0 0 0
0 0 0 0 0 0 0 0 0 0 0 0 0 0 0 0 0 0 0 0 0 0 0 0 0 0 0 0 0 0 0 0 0 0 0 0 0 0 0 0 0 0 0 0
0 0 0 0 0 0 0 0 0 0 0 0 0 0 0 0 0 0 0 0 0 0 0 0 0 0 0 0 0 0 0 0 0 0 0 0 0 0 0 0 0 0 0 0
0 0 0 0 0 0 0 0 0 0 0 0 0 0 0 0 0 0 0 0 0 0 0 0 0 0 0 0 0 0 0 0 0 0 0 0 0 0 0 0 0 0 0 0
0 0 0 0 0 0 0 0 0 0 0 0 0 0 0 0 0 0 0 0 0 0 0 0 0 0 0 0 0 0 0 0 0 0 0 0 0 0 0 0 0 0 0 0
0 0 0 0 0 0 0 0 0 0 0 0 0 0 0 0 0 0 0 0 0 0 0 0 0 0 0 0 0 0 0 0 0 0 0 0 0 0 0 0 0 0 0 0
0 0 0 0 0 0 0 0 0 0 0 0 0 0 0 0 0 0 0 0 0 0 0 0 0 0 0 0 0 0 0 0 0 0 0 0 0 0 0 0 0 0 0 0
0 0 0 0 0 0 0 0 0 0 0 0 0 0 0 0 0 0 0 0 0 0 0 0 0 0 0 0 0 0 0 0 0 0 0 0 0 0 0 0 0 0 0 0
0 0 0 0 0 0 0 -0 -0 -0 -0 -0 0 0 0 0 0 0 -0 -0 0 0 0 0 0 0 -0 0 0 0 0 0 0 0 0 0 0 0 0 0 0 0 0 0
0 0 0 0 0 0 0 -0 -0 -0 -0 -0 -0 -0 -0 -0 -0 -0 -0 -0 -0 0 0 -0 -0 -0 -0 -0 -0 -0 0 0 0 0 0 0 0 0 0 0 0 0 0 0
0 0 0 0 0 0 -0 -0 -0 -0 -0 -0 -0 -0 -0 0 0 0 0 0 0 -0 -0 -0 -0 -0 -0 -0 -0 -0 0 0 0 0 0 0 0 0 0 0 0 0 0 0
0 0 0 0 0 0 -0 -0 -0 -0 -0 -0 -0 0 0 0 0 0 0 0 0 0 0 -0 -0 -0 -0 -0 -0 0 0 0 0 0 0 0 0 0 0 0 0 0 0 0
0 0 0 0 0 0 0 0 0 0 0 0 0 0 0 0 0 0 0 0 0 0 0 -0 -0 -0 -0 -0 0 0 0 0 0 0 0 0 0 0 0 0 0 0 0 0
Wind_Speed
4 5 10 17 19 13 8 9 13 15 7 7 14 20 20 17 11 13 15 16 17 19 23 13 11 14 14 14 16 19 19 19 16 13 12 11 11 9 8 8 9 10 9 9
3 10 19 12 6 8 10 12 16 14 11 9 13 21 17 17 18 16 17 19 20 19 21 13 9 10 14 18 19 20 21 21 20 15 12 7 7 5 6 7 9 10 10 9
15 9 10 10 7 9 14 14 18 15 8 7 11 15 12 14 17 15 14 16 18 20 24 18 9 10 13 17 21 20 22 20 19 13 9 6 4 3 5 7 8 9 9 8
11 8 8 9 11 14 19 13 15 12 8 8 5 21 10 11 14 15 18 18 20 22 22 18 10 10 15 18 17 18 19 18 17 16 16 17 13 13 12 7 7 8 9 9
10 6 8 12 15 15 17 7 6 6 7 8 5 15 11 7 10 14 17 18 20 21 20 16 12 12 13 12 14 15 16 17 15 17 19 18 14 10 5 6 9 8 8 9
10 5 7 11 7 9 6 1 3 3 2 11 10 14 14 11 13 12 15 17 19 21 18 10 7 7 7 9 10 12 15 16 16 18 18 19 17 13 11 10 12 10 7 8
7 6 7 6 4 3 6 5 3 5 3 13 8 11 13 11 12 15 17 17 20 18 10 5 7 9 10 12 13 13 17 17 17 18 19 20 19 17 17 14 14 12 9 9
7 13 9 9 12 11 9 12 11 9 10 11 4 14 11 10 10 10 12 11 9 7 4 7 9 10 11 13 14 15 18 17 18 20 20 17 15 13 12 13 12 14 11 11
9 16 4 7 6 10 7 10 9 7 6 10 11 11 11 7 10 13 11 7 8 8 7 7 7 8 10 13 17 19 19 18 19 20 17 15 16 15 14 11 10 10 8 9
6 13 9 2 2 3 7 6 5 7 8 10 14 15 10 7 11 8 6 6 8 6 6 7 7 9 10 12 12 13 16 19 17 16 16 14 15 15 12 11 13 12 11 11
3 6 9 2 9 10 7 6 8 7 7 9 11 16 8 7 4 4 6 7 8 8 9 8 8 8 8 8 10 13 15 14 14 17 17 15 15 14 12 12 14 13 13 14
6 6 10 11 8 6 9 13 12 10 13 9 9 17 17 9 11 13 17 16 11 9 8 7 7 6 7 10 12 15 16 16 18 16 14 15 13 13 15 15 14 15 15 15
6 7 8 7 7 6 9 11 14 13 11 12 14 16 23 15 17 16 15 15 11 10 8 7 8 8 10 13 14 15 16 18 16 13 14 15 14 16 18 17 15 16 16 15
12 11 16 19 13 7 7 9 11 13 12 18 22 23 25 29 27 19 13 13 11 10 9 10 10 11 11 12 13 15 16 16 14 15 16 18 19 20 18 15 15 16 16 17
9 14 20 26 26 23 25 22 20 22 23 25 23 23 24 28 30 22 13 9 8 9 9 10 12 12 12 12 13 14 15 14 14 16 18 20 17 14 13 14 15 16 16 16
6 12 15 24 23 24 29 28 29 31 29 30 29 28 24 27 24 24 21 12 8 9 10 11 11 12 13 14 15 14 15 13 13 16 18 15 13 14 16 16 16 16 16 15
7 10 17 23 18 20 23 21 28 27 27 29 33 30 22 19 18 19 13 17 17 18 18 17 15 14 13 14 13 14 14 10 11 14 13 12 14 15 16 16 17 17 17 16
13 17 14 15 15 27 12 4 12 20 24 23 18 15 18 19 20 8 17 19 19 18 18 17 17 18 16 14 11 10 8 7 10 12 11 12 14 15 15 16 17 16 14 15
16 17 12 10 18 19 5 12 14 12 7 15 15 16 19 23 18 4 19 20 16 14 14 13 12 12 15 15 13 10 6 5 7 10 12 14 15 15 16 18 17 13 13 12
4 5 8 11 16 13 6 14 17 13 5 13 14 16 20 20 16 14 23 21 17 15 13 12 12 11 13 14 13 10 7 5 7 7 7 7 10 13 14 14 12 9 11 11
5 5 7 11 14 4 3 6 10 5 7 13 12 13 14 12 11 17 21 17 14 15 15 13 13 12 11 11 11 11 9 7 5 3 4 7 9 9 10 10 10 11 11 11
2 4 4 3 6 5 5 6 3 7 8 8 9 8 9 12 14 15 16 17 17 16 15 13 14 15 12 9 9 12 12 7 3 3 5 7 9 9 9 11 11 11 12 13
7 7 4 5 8 11 9 6 6 6 6 6 6 8 12 15 16 16 17 17 18 18 16 14 15 18 15 10 7 13 13 6 4 4 6 7 9 9 11 13 14 12 12 11
6 4 6 8 10 11 12 10 5 2 4 6 6 8 11 14 15 16 16 17 17 18 17 16 17 18 18 14 12 12 11 5 6 7 7 8 10 11 12 11 12 13 13 13
9 5 7 11 15 13 10 8 4 4 5 6 8 9 11 12 15 15 15 16 16 17 16 16 16 18 20 18 17 14 9 6 9 9 8 9 9 11 11 11 11 13 12 14
11 14 15 16 15 12 14 8 3 4 6 7 11 14 12 12 15 16 15 15 16 18 17 17 18 20 20 19 20 17 10 8 10 9 10 9 9 9 10 10 8 18 15 20
Wind_Direction
156 135 205 218 210 220 233 236 245 254 248 202 230 244 257 268 252 249 253 256 255 258 264 255 218 209 203 193 187 185 182 177 172 175 176 179 187 184 183 184 180 176 173 169
107 222 225 230 217 237 253 261 262 270 261 237 249 254 255 260 259 249 247 251 253 256 266 258 224 208 196 191 187 184 183 179 181 183 182 176 165 175 181 181 184 182 177 173
208 224 223 230 233 235 238 236 252 255 289 289 288 273 243 249 254 257 250 247 251 252 260 265 223 208 195 191 187 185 185 181 180 169 155 136 124 118 174 193 190 188 179 174
241 242 207 207 221 222 256 235 247 264 272 265 249 287 254 236 250 252 252 249 250 253 255 258 230 205 200 196 185 183 181 179 175 167 171 173 185 193 193 181 178 177 178 176
238 216 201 213 222 214 243 260 256 260 257 275 188 266 270 197 242 250 247 245 247 251 251 247 226 209 200 184 179 178 176 177 174 176 179 185 194 194 160 156 168 176 181 181
242 227 209 212 217 214 233 116 358 40 22 272 193 233 272 177 214 234 242 242 245 250 253 244 221 188 176 167 170 172 175 179 178 182 185 192 194 182 173 179 180 182 181 184
276 238 227 181 191 197 160 156 328 315 278 257 190 229 259 217 213 215 229 238 244 249 261 230 192 182 176 176 177 177 181 184 185 189 193 198 197 191 193 188 187 184 182 187
279 279 217 198 198 200 189 169 188 219 245 273 197 240 254 248 258 266 257 256 279 303 275 223 205 192 187 184 182 184 189 191 190 195 200 200 197 196 201 193 191 192 192 187
230 264 240 206 204 164 167 205 201 196 261 281 261 262 295 276 267 259 268 293 293 284 265 241 214 198 192 191 193 193 194 195 197 200 199 199 199 200 200 189 186 190 181 173
245 272 288 240 151 232 178 175 134 173 206 244 268 272 265 268 266 287 296 284 284 282 266 246 227 214 206 203 201 199 201 203 202 200 201 202 202 203 194 182 189 185 176 170
241 270 290 263 198 202 181 193 201 204 204 210 250 265 225 218 237 276 282 274 270 269 262 248 236 227 215 205 200 204 208 207 203 202 203 202 200 196 189 190 189 181 175 171
181 222 252 255 249 223 209 212 199 212 233 220 227 253 256 241 262 269 276 277 275 270 265 263 257 246 224 217 213 212 211 211 211 205 201 203 196 188 192 195 187 178 176 174
184 217 255 264 272 227 220 223 223 233 243 235 239 251 270 264 259 253 249 255 259 266 269 268 265 252 236 227 221 218 215 215 211 200 199 200 196 195 199 196 184 178 174 171
255 230 239 254 255 256 244 243 236 232 239 246 244 252 264 271 270 265 252 256 264 264 260 258 260 260 251 238 228 222 221 217 207 200 202 204 203 202 200 189 180 176 172 171
243 247 247 253 256 257 257 253 247 243 243 248 251 250 252 261 270 277 275 268 266 262 257 252 251 252 251 246 238 230 227 217 205 203 206 210 205 195 182 178 177 174 173 174
274 269 267 263 259 257 256 255 256 255 255 257 260 260 261 266 277 285 288 300 309 309 303 287 270 259 255 250 244 234 230 218 201 206 212 206 188 181 181 178 175 173 172 170
262 275 286 284 287 284 266 252 254 257 257 261 263 266 278 290 292 293 339 22 17 2 351 338 323 302 280 266 251 241 235 218 200 209 207 190 182 182 181 176 174 176 174 171
248 261 266 272 273 264 267 285 280 270 266 272 289 338 5 348 318 5 40 14 356 346 339 335 334 328 316 303 291 274 258 219 207 207 198 185 181 181 176 176 180 177 173 175
232 243 253 256 260 266 270 25 348 310 300 30 18 14 6 352 334 32 13 354 336 328 321 317 316 317 322 323 318 304 278 234 212 208 199 188 182 178 177 182 182 175 172 173
312 281 265 268 271 275 19 354 322 290 227 34 18 7 356 353 344 323 330 325 320 317 315 314 317 319 324 326 326 321 305 268 242 228 206 179 176 179 182 180 170 164 165 164
336 309 264 264 266 228 85 340 357 346 328 352 353 342 335 325 300 295 305 310 309 308 310 312 315 314 314 317 320 312 302 281 271 226 169 165 169 171 165 158 159 159 161 159
268 282 279 295 279 224 18 23 10 278 290 308 316 313 301 299 299 299 302 307 311 311 311 313 312 311 311 310 307 301 292 282 255 185 167 164 161 157 155 155 157 162 163 163
224 213 217 222 247 281 299 296 256 235 279 298 298 299 307 307 305 309 310 310 310 312 312 313 311 309 308 307 294 290 290 275 230 199 181 168 161 159 162 163 164 168 173 174
245 242 252 266 268 276 284 274 245 258 281 285 284 292 299 300 303 305 305 306 307 308 310 313 313 309 306 308 299 284 284 249 218 213 196 178 172 171 171 174 174 179 183 184
232 248 249 263 275 278 260 253 244 257 268 279 287 289 291 294 296 299 299 298 300 303 306 308 306 304 302 304 300 296 285 240 228 218 201 190 187 180 181 187 191 191 195 192
236 248 255 259 263 266 280 285 272 263 277 284 289 290 289 291 292 293 291 294 298 299 303 305 302 298 298 301 300 299 287 245 232 225 207 197 191 185 182 183 192 206 199 204